Location: Shepherdstown, WV
(39.4326°N, 77.8042°W)
Time: 06:23:00
(UTC-04:00)

Vanguard 1 - Pass Details

Date: 09 August 2021
Orbit: 652 x 3831 km, 34.3° (Epoch: 24 September)

Event Time Altitude Azimuth Distance (km) Brightness Sun altitude
Rises 09:19:21 0° 237° (WSW) 3,371 12.4 33.4°
Reaches altitude 10° 09:22:15 10° 227° (SW) 2,223 11.7 34.0°
Maximum altitude 09:26:28 31° 165° (SSE) 1,140 11.0 34.8°
Drops below altitude 10° 09:30:27 10° 102° (ESE) 2,088 13.2 35.5°
Sets 09:33:05 0° 91° (E) 3,127 13.6 36.0°
